Dewpoint
32 27 29 28 30 27 26 25 24 26 27 26 24 24 25 28 34 39 48 51 50 51 51 52 55 56 56 56 56 56 56 57 57 57 57 57 57 58 59 59 59 59 59 58
29 21 28 29 30 30 27 26 25 27 26 27 25 24 25 28 31 36 41 49 50 50 50 52 52 55 55 55 56 56 56 56 56 56 57 57 57 57 58 59 59 59 59 58
21 25 27 28 28 28 28 27 27 25 26 27 26 25 26 27 35 40 43 46 50 50 50 51 53 54 55 54 55 55 55 56 56 56 56 56 56 56 57 57 58 58 58 57
25 25 25 27 25 27 24 28 28 27 25 20 26 20 26 27 27 32 43 48 49 50 50 50 52 53 53 55 55 54 55 55 55 54 54 55 54 54 54 56 56 57 58 59
25 23 24 23 27 29 26 29 29 28 27 26 24 24 25 29 28 28 32 46 48 50 50 50 50 52 54 55 54 54 54 54 54 54 54 53 52 54 53 55 56 56 56 57
21 24 24 23 23 30 31 29 28 30 29 25 27 25 23 25 28 29 34 39 47 49 50 50 50 52 53 54 54 54 54 54 53 53 53 54 53 53 50 52 53 55 55 57
18 21 22 25 21 30 29 27 21 24 25 22 26 26 25 29 29 30 31 34 47 49 49 50 50 50 51 52 54 53 54 53 52 52 52 52 53 53 52 51 52 53 53 54
8 3 18 22 24 23 26 25 22 16 21 21 32 27 27 33 33 34 35 35 43 48 49 49 50 50 50 51 52 53 52 52 52 52 52 52 51 50 51 52 52 53 53 53
25 12 22 16 23 23 26 25 25 23 29 26 25 31 31 32 32 31 30 33 38 45 48 49 50 51 51 52 51 52 51 52 52 53 52 52 52 51 50 52 53 53 53 53
30 29 24 23 21 22 23 28 25 26 18 15 21 27 22 27 27 29 29 32 39 44 47 48 49 51 51 52 52 52 52 51 52 53 53 52 52 52 52 53 53 53 54 55
33 32 29 28 22 21 22 21 24 26 27 19 17 22 34 31 30 30 32 34 36 43 45 47 49 50 51 52 53 53 53 53 53 53 53 53 52 52 53 53 53 53 54 54
36 34 30 27 29 27 23 24 23 22 20 29 25 21 29 34 33 34 34 32 32 42 45 47 48 49 50 51 52 52 53 53 53 53 53 53 54 53 53 54 53 54 54 56
24 31 25 25 25 30 29 29 30 28 27 22 24 23 30 30 32 32 32 33 34 36 43 47 48 48 49 50 52 52 52 52 53 53 53 53 54 53 53 53 54 54 54 54
32 29 21 18 27 29 29 31 29 33 29 24 23 22 27 29 31 31 32 35 34 33 39 44 47 48 49 50 51 52 53 53 53 52 52 52 53 53 53 54 54 55 55 54
34 29 30 27 25 24 27 27 27 29 32 26 23 24 26 27 29 31 33 34 33 32 31 41 44 47 49 50 51 52 53 53 53 52 53 53 53 54 54 55 55 55 56 57
33 32 31 28 28 28 25 27 30 32 33 30 25 24 30 31 32 32 32 32 32 33 31 32 39 45 48 50 51 52 52 53 53 52 52 52 52 52 54 55 56 56 57 57
28 28 31 25 28 29 28 28 31 32 31 28 26 29 30 30 31 32 33 33 32 33 33 34 34 40 46 48 50 51 52 54 53 52 51 51 51 51 53 54 55 55 56 57
28 29 29 26 30 23 25 31 33 32 29 28 28 30 30 30 31 32 32 32 33 33 34 34 36 44 49 50 50 51 52 53 53 53 53 53 53 53 54 54 55 53 51 50
30 28 25 24 25 27 18 33 33 34 34 33 26 27 29 30 30 31 31 31 33 35 36 43 47 49 50 51 51 52 52 52 52 52 52 52 52 51 49 48 47 47 45 42
29 30 27 28 25 20 25 34 40 36 30 38 35 36 34 32 31 29 35 40 47 47 48 49 49 50 50 51 51 51 50 48 47 47 48 48 48 47 46 45 43 40 38 36
27 27 25 25 25 27 32 37 40 30 34 41 41 39 38 33 34 38 47 48 46 46 47 48 48 49 49 49 48 47 46 45 45 45 45 44 44 42 41 40 38 36 34 32
28 28 26 27 27 23 36 39 33 39 42 39 41 40 42 39 40 47 48 47 47 46 47 48 47 47 47 46 45 43 41 40 39 39 39 38 38 37 37 36 34 33 32 30
22 28 31 33 29 39 38 35 38 42 40 40 43 42 42 42 44 47 47 46 46 45 44 44 43 41 41 42 41 38 37 36 35 34 32 32 32 32 33 33 32 31 30 29
26 30 31 31 31 33 35 36 38 38 39 40 44 44 45 46 47 46 46 41 39 39 38 35 32 31 30 32 33 33 32 32 31 31 31 30 30 30 30 29 30 31 31 30
24 31 30 30 29 34 34 35 35 38 40 41 42 45 45 46 41 38 36 34 33 32 32 31 30 29 28 29 29 29 29 31 30 30 29 29 28 28 28 28 28 27 29 30
29 27 27 27 29 33 33 35 37 41 39 38 40 43 44 41 36 32 30 30 30 29 29 29 29 29 29 29 29 29 30 31 30 30 29 30 29 28 27 27 27 28 27 27
Lifted_Index
6 6 5 4 4 4 4 4 4 5 5 5 4 4 3 3 2 1 0 -0 -0 0 0 1 1 1 1 2 2 1 1 2 2 2 2 2 3 3 4 3 3 3 3 3
6 6 5 5 5 5 5 4 4 4 5 5 5 4 4 3 2 1 1 0 0 0 0 1 1 1 1 2 2 2 1 2 2 2 2 2 3 3 4 3 3 3 3 3
5 6 6 5 5 5 5 4 4 4 5 5 5 4 4 3 2 2 1 1 1 0 0 1 2 2 1 1 2 2 2 2 1 2 2 2 3 3 3 3 3 3 3 3
5 5 5 5 5 4 4 4 4 4 5 5 5 4 3 3 3 2 2 2 1 1 0 1 2 2 2 1 1 2 2 2 2 2 2 3 3 3 3 3 3 4 4 4
4 5 5 4 4 4 4 4 5 5 5 5 5 4 3 3 3 2 2 2 1 1 0 1 2 2 2 2 2 2 2 2 2 2 3 4 4 4 3 3 4 4 4 4
4 5 4 4 4 4 4 4 4 4 4 4 4 4 3 2 2 2 2 2 1 1 0 0 1 2 3 3 2 2 2 2 2 2 3 4 4 4 4 4 4 5 5 4
4 4 4 4 4 4 3 3 2 2 2 3 3 3 3 3 2 2 2 1 1 1 1 0 1 2 3 3 3 3 3 2 2 3 3 4 4 5 4 4 5 5 4 4
3 3 4 5 4 3 3 2 2 1 1 2 3 3 3 3 2 2 2 1 1 1 1 0 0 1 3 3 3 3 3 3 3 3 3 4 4 4 5 5 5 5 4 4
3 3 5 5 5 4 3 3 2 2 2 2 3 4 4 3 2 2 2 1 1 0 0 0 -0 0 1 2 3 3 3 3 3 3 3 3 3 4 4 5 5 4 4 4
4 4 4 5 5 4 3 3 3 3 2 1 2 3 4 3 2 2 1 1 1 0 0 -0 -0 -0 0 1 2 3 3 3 3 3 3 3 3 3 4 4 4 3 3 3
4 4 4 4 4 3 3 3 3 3 2 2 2 3 4 3 2 1 1 1 1 0 0 -0 -0 -0 -1 -0 0 1 2 2 3 3 3 3 3 3 3 3 3 3 3 3
4 4 4 3 3 2 2 3 3 3 3 3 3 3 3 3 2 1 1 1 1 0 0 0 -0 -0 -1 -1 -1 -0 0 1 2 3 3 3 3 3 3 3 3 3 3 3
6 5 4 3 2 2 2 2 3 3 3 3 4 4 3 3 2 1 1 0 0 0 0 0 0 -0 -1 -1 -1 -1 -1 -0 0 1 2 2 2 3 3 3 3 3 3 3
6 5 5 4 3 2 2 2 2 3 3 4 4 4 3 3 2 1 0 0 0 0 0 0 0 -0 -1 -1 -1 -1 -1 -1 -0 0 0 1 1 1 2 2 2 2 2 2
5 5 5 5 4 3 2 2 2 2 3 3 4 4 3 3 2 1 0 0 -0 -0 -0 -0 -0 -0 -1 -1 -1 -1 -1 -1 -1 -1 -0 0 0 1 1 1 2 2 2 2
4 4 4 4 4 3 3 2 2 2 2 3 3 3 3 2 2 1 1 0 -0 -0 -1 -1 -0 -0 -0 -1 -1 -1 -1 -1 -1 -1 -1 -0 -0 0 0 0 1 1 1 1
4 4 3 3 2 2 2 2 1 1 2 2 3 3 2 2 1 1 1 0 0 -0 -0 -1 -0 -0 -0 -0 -1 -1 -1 -1 -1 -1 -1 -1 -1 -0 -0 -0 -0 -0 -0 -0
4 4 3 2 1 1 2 1 0 1 1 2 2 2 2 1 1 1 1 0 0 -0 -0 -1 -1 -0 -0 -0 -0 -0 -1 -1 -1 -1 -1 -1 -1 -1 -1 -1 -1 -1 -1 -1
4 4 3 2 1 1 1 1 0 1 1 1 2 2 1 1 1 1 1 0 0 -0 -0 -0 -0 -0 -0 -0 -0 -0 -1 -1 -1 -1 -1 -1 -1 -1 -1 -1 -1 -0 -0 -0
3 3 3 2 1 1 1 1 1 1 1 0 1 1 1 1 1 1 1 0 1 1 0 0 -0 -0 -0 -0 -0 -1 -1 -1 -1 -1 -1 -1 -1 -1 -0 0 0 1 1 1
2 3 3 2 2 1 1 1 1 1 1 0 -0 0 0 1 1 1 1 1 1 1 1 0 -0 -0 -0 -0 -1 -1 -1 -1 -1 -1 -1 -1 -0 0 1 2 2 3 3 4
2 2 2 2 2 1 1 1 1 1 1 1 0 -0 -0 0 1 1 1 1 1 1 1 0 0 -0 -0 -0 -0 -0 -0 -0 -0 -0 -0 0 1 2 3 4 4 5 5 5
3 2 2 1 2 1 1 1 2 1 2 1 1 0 -0 0 1 1 1 1 1 1 1 0 0 0 0 0 0 0 1 1 1 2 2 3 4 5 5 6 6 7 7 7
3 3 2 2 2 2 1 2 2 2 2 1 1 0 -0 -0 0 1 1 1 1 1 0 1 1 1 1 1 2 3 3 3 4 4 5 5 6 7 7 8 8 8 9 9
3 3 3 3 3 2 2 2 2 2 1 1 1 0 0 -0 -0 0 1 1 1 1 1 1 1 2 2 3 4 5 6 6 6 6 7 7 8 9 9 9 10 11 12 13
3 3 3 3 3 3 2 2 2 2 1 1 1 1 0 -0 -0 0 1 1 1 1 1 2 2 2 3 3 5 6 7 7 7 7 8 9 10 10 10 11 12 14 15 15